RYR24ZZ EDDK-EGSS

Flight info

Callsign RYR24ZZ
Flight time 0h 58m
Altitude 32000
Route NVO2R NVO Y868 SOGRI L608 SUMUM Y6 TOSVA
Aircraft B738/M-SDE2E3FGHIRWXY/LB1

Departure

Time 2026-05-05 09:42
Airport Cologne Bonn Airport (EDDK)

Arrival

Time 2026-05-05 10:41
Airport London Stansted Airport (EGSS)
Time Latitude Longitude Altitude Speed Heading
2026-05-05 09:16 50.87696 7.12387 233 ft 0 kts 288°
2026-05-05 09:35 50.87695 7.12388 231 ft 1 kts 288°
2026-05-05 09:35 50.87691 7.12408 231 ft 3 kts 288°
2026-05-05 09:36 50.87685 7.12437 234 ft 2 kts 288°
2026-05-05 09:36 50.87679 7.12463 234 ft 3 kts 303°
2026-05-05 09:36 50.87667 7.12483 233 ft 3 kts 339°
2026-05-05 09:36 50.87648 7.12487 231 ft 3 kts 11°
2026-05-05 09:37 50.87629 7.12480 232 ft 3 kts 18°
2026-05-05 09:37 50.87619 7.12474 231 ft 0 kts 18°
2026-05-05 09:39 50.87621 7.12475 231 ft 1 kts 18°
2026-05-05 09:39 50.87653 7.12492 231 ft 9 kts 18°
2026-05-05 09:39 50.87713 7.12523 231 ft 9 kts 18°
2026-05-05 09:40 50.87779 7.12556 231 ft 11 kts 18°
2026-05-05 09:40 50.87856 7.12595 231 ft 12 kts 18°
2026-05-05 09:40 50.87931 7.12639 232 ft 11 kts 26°
2026-05-05 09:40 50.87988 7.12719 236 ft 11 kts 72°
2026-05-05 09:41 50.88004 7.12836 237 ft 11 kts 82°
2026-05-05 09:41 50.88010 7.12950 238 ft 10 kts 100°
2026-05-05 09:41 50.87988 7.12996 238 ft 0 kts 140°
2026-05-05 09:41 50.87983 7.13002 238 ft 5 kts 140°
2026-05-05 09:42 50.87757 7.13328 238 ft 88 kts 137°
2026-05-05 09:42 50.87109 7.14275 260 ft 161 kts 137°
2026-05-05 09:42 50.86279 7.15426 1228 ft 154 kts 138°
2026-05-05 09:42 50.85469 7.16576 2110 ft 166 kts 139°
2026-05-05 09:43 50.84529 7.17920 2522 ft 199 kts 139°
2026-05-05 09:43 50.83426 7.19477 2762 ft 226 kts 139°
2026-05-05 09:43 50.82216 7.21170 3288 ft 237 kts 140°
2026-05-05 09:43 50.80774 7.22511 3805 ft 252 kts 169°
2026-05-05 09:44 50.79032 7.22219 4555 ft 259 kts 205°
2026-05-05 09:44 50.77651 7.20466 5452 ft 262 kts 232°
2026-05-05 09:44 50.76871 7.17810 6355 ft 268 kts 258°
2026-05-05 09:44 50.76889 7.14846 7186 ft 274 kts 276°
2026-05-05 09:45 50.77089 7.11872 7999 ft 278 kts 273°
2026-05-05 09:45 50.77242 7.08805 8834 ft 282 kts 272°
2026-05-05 09:45 50.77389 7.05699 9687 ft 286 kts 272°
2026-05-05 09:45 50.77539 7.02531 10341 ft 296 kts 272°
2026-05-05 09:46 50.77701 6.99146 10546 ft 321 kts 273°
2026-05-05 09:46 50.78042 6.95566 10964 ft 338 kts 284°
2026-05-05 09:46 50.78775 6.91999 11681 ft 343 kts 288°
2026-05-05 09:46 50.79604 6.88459 12499 ft 345 kts 289°
2026-05-05 09:47 50.80485 6.84915 13289 ft 349 kts 290°
2026-05-05 09:47 50.81386 6.81334 14031 ft 353 kts 290°
2026-05-05 09:47 50.82297 6.77711 14743 ft 357 kts 290°
2026-05-05 09:47 50.83217 6.74028 15425 ft 362 kts 290°
2026-05-05 09:48 50.84141 6.70308 16125 ft 366 kts 290°
2026-05-05 09:48 50.85073 6.66533 16812 ft 371 kts 290°
2026-05-05 09:48 50.86013 6.62706 17470 ft 375 kts 290°
2026-05-05 09:48 50.86960 6.58841 18114 ft 379 kts 290°
2026-05-05 09:49 50.87915 6.54927 18676 ft 383 kts 290°
2026-05-05 09:49 50.88876 6.50981 19254 ft 386 kts 290°
2026-05-05 09:49 50.89843 6.47000 19834 ft 389 kts 290°
2026-05-05 09:49 50.90816 6.42986 20397 ft 392 kts 290°
2026-05-05 09:50 50.91795 6.38941 20946 ft 395 kts 290°
2026-05-05 09:50 50.92782 6.34852 21497 ft 398 kts 290°
2026-05-05 09:50 50.93775 6.30734 22044 ft 401 kts 289°
2026-05-05 09:50 50.94772 6.26588 22617 ft 404 kts 289°
2026-05-05 09:51 50.95775 6.22411 23153 ft 407 kts 289°
2026-05-05 09:51 50.96784 6.18201 23657 ft 410 kts 289°
2026-05-05 09:51 50.97800 6.13956 24098 ft 412 kts 289°
2026-05-05 09:51 50.98816 6.09700 24577 ft 413 kts 289°
2026-05-05 09:52 50.99835 6.05423 25039 ft 415 kts 289°
2026-05-05 09:52 51.00855 6.01134 25484 ft 416 kts 288°
2026-05-05 09:52 51.01878 5.96819 25905 ft 418 kts 288°
2026-05-05 09:52 51.02906 5.92481 26326 ft 420 kts 288°
2026-05-05 09:53 51.03937 5.88118 26756 ft 422 kts 288°
2026-05-05 09:53 51.04967 5.83749 27203 ft 423 kts 288°
2026-05-05 09:53 51.05996 5.79383 27773 ft 420 kts 288°
2026-05-05 09:53 51.07012 5.75062 28420 ft 416 kts 287°
2026-05-05 09:54 51.08019 5.70775 29026 ft 413 kts 287°
2026-05-05 09:54 51.09006 5.66558 29558 ft 411 kts 287°
2026-05-05 09:54 51.09999 5.62304 30046 ft 410 kts 287°
2026-05-05 09:54 51.10988 5.58061 30525 ft 408 kts 286°
2026-05-05 09:55 51.11971 5.53838 30973 ft 406 kts 285°
2026-05-05 09:55 51.12948 5.49626 31371 ft 405 kts 285°
2026-05-05 09:55 51.13920 5.45431 31775 ft 404 kts 285°
2026-05-05 09:55 51.14895 5.41209 31903 ft 409 kts 285°
2026-05-05 09:56 51.16856 5.32692 31912 ft 407 kts 285°
2026-05-05 09:56 51.18787 5.24303 31920 ft 401 kts 285°
2026-05-05 09:57 51.20705 5.15908 31930 ft 404 kts 285°
2026-05-05 09:57 51.22625 5.07472 31931 ft 406 kts 285°
2026-05-05 09:58 51.24547 4.99003 31932 ft 407 kts 285°
2026-05-05 09:58 51.26470 4.90496 31929 ft 407 kts 285°
2026-05-05 09:59 51.28387 4.81984 31929 ft 407 kts 285°
2026-05-05 09:59 51.30295 4.73472 31930 ft 407 kts 285°
2026-05-05 10:00 51.32194 4.64968 31932 ft 405 kts 285°
2026-05-05 10:00 51.34068 4.56543 31934 ft 404 kts 285°
2026-05-05 10:01 51.35942 4.48080 31936 ft 403 kts 285°
2026-05-05 10:01 51.37806 4.39628 31942 ft 402 kts 285°
2026-05-05 10:02 51.39661 4.31182 31940 ft 402 kts 285°
2026-05-05 10:02 51.41509 4.22734 31941 ft 402 kts 285°
2026-05-05 10:03 51.43348 4.14292 31933 ft 401 kts 285°
2026-05-05 10:03 51.45181 4.05843 31937 ft 401 kts 285°
2026-05-05 10:04 51.47004 3.97408 31937 ft 400 kts 285°
2026-05-05 10:04 51.48822 3.88962 31935 ft 400 kts 285°
2026-05-05 10:05 51.50632 3.80516 31930 ft 400 kts 285°
2026-05-05 10:05 51.52435 3.72066 31933 ft 400 kts 285°
2026-05-05 10:06 51.54218 3.63678 31939 ft 399 kts 285°
2026-05-05 10:06 51.56004 3.55238 31929 ft 399 kts 285°
2026-05-05 10:07 51.57761 3.46915 31921 ft 383 kts 285°
2026-05-05 10:07 51.59448 3.38886 31941 ft 378 kts 285°
2026-05-05 10:08 51.60288 3.34868 31832 ft 381 kts 285°
2026-05-05 10:08 51.61127 3.30844 31565 ft 377 kts 285°
2026-05-05 10:08 51.61955 3.26873 31202 ft 373 kts 285°
2026-05-05 10:08 51.62775 3.22934 30871 ft 369 kts 285°
2026-05-05 10:09 51.63587 3.19024 30522 ft 367 kts 285°
2026-05-05 10:09 51.64392 3.15142 30172 ft 364 kts 285°
2026-05-05 10:09 51.65188 3.11289 29789 ft 362 kts 285°
2026-05-05 10:09 51.65978 3.07462 29402 ft 359 kts 285°
2026-05-05 10:10 51.66761 3.03664 29048 ft 355 kts 285°
2026-05-05 10:10 51.67533 2.99911 28689 ft 351 kts 285°
2026-05-05 10:10 51.68039 2.97445 28446 ft 349 kts 285°
2026-05-05 10:10 51.68799 2.93740 28091 ft 346 kts 285°
2026-05-05 10:11 51.69549 2.90073 27741 ft 343 kts 285°
2026-05-05 10:11 51.70292 2.86438 27388 ft 341 kts 285°
2026-05-05 10:11 51.71028 2.82824 27037 ft 338 kts 285°
2026-05-05 10:11 51.71759 2.79232 26699 ft 335 kts 285°
2026-05-05 10:12 51.72483 2.75670 26361 ft 333 kts 285°
2026-05-05 10:12 51.73199 2.72134 26027 ft 331 kts 285°
2026-05-05 10:12 51.73911 2.68617 25697 ft 329 kts 285°
2026-05-05 10:12 51.74621 2.65104 25367 ft 329 kts 285°
2026-05-05 10:13 51.75330 2.61587 25043 ft 330 kts 285°
2026-05-05 10:13 51.76045 2.58031 24715 ft 338 kts 285°
2026-05-05 10:13 51.76777 2.54375 24363 ft 346 kts 285°
2026-05-05 10:13 51.77518 2.50680 23998 ft 346 kts 285°
2026-05-05 10:14 51.78258 2.46990 23643 ft 344 kts 285°
2026-05-05 10:14 51.78992 2.43318 23245 ft 343 kts 285°
2026-05-05 10:14 51.79721 2.39662 22847 ft 341 kts 285°
2026-05-05 10:14 51.80445 2.36029 22496 ft 339 kts 285°
2026-05-05 10:15 51.81163 2.32418 22143 ft 336 kts 285°
2026-05-05 10:15 51.81865 2.28883 21804 ft 333 kts 285°
2026-05-05 10:15 51.82568 2.25331 21445 ft 331 kts 285°
2026-05-05 10:15 51.83266 2.21799 21129 ft 329 kts 285°
2026-05-05 10:16 51.83958 2.18289 20798 ft 327 kts 285°
2026-05-05 10:16 51.84646 2.14796 20468 ft 325 kts 285°
2026-05-05 10:16 51.85328 2.11328 20139 ft 323 kts 285°
2026-05-05 10:16 51.86005 2.07877 19813 ft 321 kts 285°
2026-05-05 10:17 51.86676 2.04444 19491 ft 319 kts 285°
2026-05-05 10:17 51.87345 2.01024 19167 ft 318 kts 285°
2026-05-05 10:17 51.88011 1.97614 18841 ft 317 kts 286°
2026-05-05 10:17 51.88671 1.94224 18527 ft 316 kts 286°
2026-05-05 10:18 51.89329 1.90839 18203 ft 315 kts 286°
2026-05-05 10:18 51.90038 1.87493 17851 ft 314 kts 292°
2026-05-05 10:18 51.90995 1.84320 17570 ft 313 kts 297°
2026-05-05 10:18 51.92042 1.81233 17293 ft 313 kts 298°
2026-05-05 10:19 51.93109 1.78145 17022 ft 314 kts 298°
2026-05-05 10:19 51.94169 1.75052 16739 ft 314 kts 298°
2026-05-05 10:19 51.95219 1.71949 16466 ft 315 kts 298°
2026-05-05 10:19 51.96265 1.68825 16190 ft 315 kts 298°
2026-05-05 10:20 51.97305 1.65696 15918 ft 315 kts 298°
2026-05-05 10:20 51.98335 1.62579 15629 ft 311 kts 297°
2026-05-05 10:20 51.99348 1.59500 15354 ft 308 kts 297°
2026-05-05 10:20 52.00346 1.56459 15088 ft 304 kts 297°
2026-05-05 10:21 52.01335 1.53438 14831 ft 301 kts 297°
2026-05-05 10:21 52.02313 1.50447 14569 ft 299 kts 297°
2026-05-05 10:21 52.03280 1.47485 14313 ft 296 kts 298°
2026-05-05 10:21 52.04242 1.44532 14057 ft 294 kts 298°
2026-05-05 10:22 52.05196 1.41601 13806 ft 293 kts 298°
2026-05-05 10:22 52.06146 1.38680 13524 ft 292 kts 298°
2026-05-05 10:22 52.07091 1.35772 13251 ft 290 kts 298°
2026-05-05 10:22 52.08031 1.32875 12985 ft 289 kts 298°
2026-05-05 10:23 52.08969 1.29983 12736 ft 288 kts 298°
2026-05-05 10:23 52.09902 1.27099 12476 ft 288 kts 298°
2026-05-05 10:23 52.10833 1.24220 12233 ft 287 kts 297°
2026-05-05 10:23 52.11536 1.21199 11955 ft 287 kts 277°
2026-05-05 10:24 52.11395 1.18004 11785 ft 284 kts 256°
2026-05-05 10:24 52.10882 1.14906 11596 ft 284 kts 255°
2026-05-05 10:24 52.10358 1.11792 11391 ft 286 kts 255°
2026-05-05 10:24 52.09834 1.08677 11185 ft 286 kts 255°
2026-05-05 10:25 52.09307 1.05544 10984 ft 287 kts 255°
2026-05-05 10:25 52.08781 1.02410 10777 ft 288 kts 255°
2026-05-05 10:25 52.08259 0.99296 10579 ft 289 kts 255°
2026-05-05 10:25 52.07722 0.96091 10368 ft 290 kts 255°
2026-05-05 10:26 52.07200 0.92985 10162 ft 287 kts 255°
2026-05-05 10:26 52.06679 0.89885 9956 ft 282 kts 255°
2026-05-05 10:26 52.06200 0.87037 9755 ft 278 kts 255°
2026-05-05 10:26 52.05695 0.84038 9545 ft 273 kts 255°
2026-05-05 10:27 52.05195 0.81076 9345 ft 271 kts 255°
2026-05-05 10:27 52.04695 0.78119 9151 ft 271 kts 255°
2026-05-05 10:27 52.04196 0.75165 8965 ft 271 kts 256°
2026-05-05 10:27 52.03695 0.72207 8763 ft 272 kts 256°
2026-05-05 10:28 52.03194 0.69249 8577 ft 272 kts 255°
2026-05-05 10:28 52.02694 0.66313 8366 ft 267 kts 256°
2026-05-05 10:28 52.02202 0.63431 8185 ft 263 kts 256°
2026-05-05 10:28 52.01719 0.60599 7996 ft 258 kts 256°
2026-05-05 10:29 52.01395 0.57778 7847 ft 251 kts 265°
2026-05-05 10:29 52.01253 0.54993 7699 ft 245 kts 267°
2026-05-05 10:29 52.01120 0.52258 7578 ft 242 kts 266°
2026-05-05 10:29 52.00975 0.49536 7443 ft 242 kts 266°
2026-05-05 10:30 52.00822 0.46798 7307 ft 244 kts 266°
2026-05-05 10:30 52.00710 0.44038 7192 ft 246 kts 268°
2026-05-05 10:30 52.00615 0.41257 7049 ft 246 kts 268°
2026-05-05 10:30 52.00517 0.38487 6908 ft 246 kts 268°
2026-05-05 10:31 52.00416 0.35714 6765 ft 246 kts 268°
2026-05-05 10:31 52.00312 0.32945 6627 ft 246 kts 268°
2026-05-05 10:31 52.00208 0.30180 6485 ft 245 kts 268°
2026-05-05 10:31 51.99903 0.27478 6315 ft 246 kts 244°
2026-05-05 10:32 51.98812 0.25380 6216 ft 244 kts 222°
2026-05-05 10:32 51.97563 0.23525 6082 ft 244 kts 223°
2026-05-05 10:32 51.96322 0.21631 5898 ft 246 kts 223°
2026-05-05 10:32 51.95079 0.19719 5732 ft 247 kts 223°
2026-05-05 10:33 51.93831 0.17799 5555 ft 248 kts 223°
2026-05-05 10:33 51.92574 0.15869 5385 ft 249 kts 223°
2026-05-05 10:33 51.91313 0.13934 5214 ft 250 kts 223°
2026-05-05 10:33 51.90057 0.12008 5030 ft 248 kts 223°
2026-05-05 10:34 51.88805 0.10092 4857 ft 246 kts 222°
2026-05-05 10:34 51.87585 0.08227 4674 ft 243 kts 223°
2026-05-05 10:34 51.86367 0.06345 4503 ft 243 kts 223°
2026-05-05 10:34 51.85147 0.04447 4342 ft 244 kts 223°
2026-05-05 10:35 51.83931 0.02548 4172 ft 244 kts 223°
2026-05-05 10:35 51.82707 0.00634 4001 ft 244 kts 223°
2026-05-05 10:35 51.81485 -0.01278 3831 ft 245 kts 223°
2026-05-05 10:35 51.80157 -0.02909 3748 ft 236 kts 200°
2026-05-05 10:36 51.78576 -0.03248 3701 ft 228 kts 167°
2026-05-05 10:36 51.77193 -0.02206 3560 ft 218 kts 136°
2026-05-05 10:36 51.76177 -0.00413 3311 ft 218 kts 115°
2026-05-05 10:36 51.75966 0.01885 3135 ft 207 kts 74°
2026-05-05 10:37 51.76591 0.03926 3017 ft 201 kts 59°
2026-05-05 10:37 51.77279 0.05850 2877 ft 193 kts 57°
2026-05-05 10:37 51.78100 0.07530 2737 ft 187 kts 50°
2026-05-05 10:37 51.78964 0.09044 2592 ft 179 kts 45°
2026-05-05 10:38 51.79840 0.10409 2405 ft 173 kts 44°
2026-05-05 10:38 51.80710 0.11727 2179 ft 170 kts 43°
2026-05-05 10:38 51.81549 0.12992 2040 ft 160 kts 43°
2026-05-05 10:38 51.82373 0.14235 1881 ft 162 kts 43°
2026-05-05 10:39 51.83182 0.15455 1670 ft 154 kts 43°
2026-05-05 10:39 51.83932 0.16587 1474 ft 145 kts 43°
2026-05-05 10:39 51.84667 0.17695 1266 ft 144 kts 43°
2026-05-05 10:39 51.85407 0.18810 1035 ft 147 kts 43°
2026-05-05 10:40 51.86143 0.19921 855 ft 145 kts 42°
2026-05-05 10:40 51.86877 0.21032 641 ft 143 kts 43°
2026-05-05 10:40 51.87590 0.22109 408 ft 138 kts 43°
2026-05-05 10:40 51.88258 0.23119 350 ft 121 kts 42°
2026-05-05 10:41 51.88769 0.23883 350 ft 79 kts 43°
2026-05-05 10:41 51.89037 0.24300 358 ft 39 kts 51°
2026-05-05 10:41 51.89127 0.24602 350 ft 12 kts 70°
2026-05-05 10:41 51.89154 0.24729 352 ft 12 kts 71°
2026-05-05 10:42 51.89161 0.24896 355 ft 5 kts 103°
2026-05-05 10:42 51.89178 0.24971 352 ft 10 kts 49°
2026-05-05 10:42 51.89227 0.25072 355 ft 14 kts 58°
2026-05-05 10:43 51.89293 0.25209 353 ft 16 kts 43°
2026-05-05 10:43 51.89373 0.25331 355 ft 15 kts 43°
2026-05-05 10:43 51.89415 0.25477 348 ft 15 kts 103°
2026-05-05 10:43 51.89366 0.25610 350 ft 12 kts 123°
2026-05-05 10:44 51.89341 0.25694 353 ft 7 kts 68°
2026-05-05 10:44 51.89362 0.25729 350 ft 0 kts 43°